This is the latest recevied weather packets stored in our database for station/object KE5QKR. If no packets are shown the sender has not sent any weather packets the latest 10 day(s).
| Time | Temp. | Humidity | Pressure | Rain* | Wind** | Luminosity | Snow |
|---|---|---|---|---|---|---|---|
| 1777515895 | 18.89° C | 99% | 1012.2 hPa | 0 mm | - | 0 W/m² | - |
| 1777515591 | 18.89° C | 99% | 1012.2 hPa | 0 mm | - | 0 W/m² | - |
| 1777515288 | 18.89° C | 99% | 1012 hPa | 0 mm | - | 0 W/m² | - |
| 1777514984 | 18.89° C | 99% | 1012 hPa | 0 mm | - | 0 W/m² | - |
| 1777514680 | 18.89° C | 99% | 1011.9 hPa | 0 mm | - | 0 W/m² | - |
| 1777514378 | 18.89° C | 99% | 1011.9 hPa | 0 mm | - | 0 W/m² | - |
| 1777514074 | 18.89° C | 99% | 1011.8 hPa | 0 mm | - | 0 W/m² | - |
| 1777513772 | 18.89° C | 99% | 1011.8 hPa | 0 mm | - | 0 W/m² | - |
| 1777513469 | 18.89° C | 99% | 1011.8 hPa | 1.78 mm | - | 0 W/m² | - |
| 1777513165 | 18.89° C | 99% | 1012.1 hPa | 3.05 mm | - | 0 W/m² | - |
| 1777512861 | 18.89° C | 99% | 1012.2 hPa | 3.05 mm | - | 0 W/m² | - |
| 1777512558 | 18.89° C | 99% | 1012.3 hPa | 3.05 mm | - | 0 W/m² | - |
| 1777512255 | 18.89° C | 99% | 1012.3 hPa | 1.27 mm | - | 0 W/m² | - |
| 1777511952 | 18.89° C | 99% | 1012.6 hPa | 0 mm | - | 0 W/m² | - |
| 1777511649 | 18.89° C | 99% | 1012.5 hPa | 1.78 mm | - | 0 W/m² | - |
| 1777511347 | 18.89° C | 99% | 1012.1 hPa | 6.1 mm | - | 0 W/m² | - |
| 1777511042 | 18.33° C | 99% | 1012.1 hPa | 8.89 mm | - | 0 W/m² | - |
| 1777510739 | 18.33° C | 99% | 1012 hPa | 12.7 mm | - | 0 W/m² | - |
| 1777510436 | 18.33° C | 99% | 1012.1 hPa | 14.99 mm | - | 0 W/m² | - |
| 1777510132 | 18.33° C | 99% | 1012.6 hPa | 34.8 mm | - | 0 W/m² | - |
| 1777509829 | 18.33° C | 98% | 1012.8 hPa | 42.67 mm | - | 0 W/m² | - |
| 1777509524 | 21.11° C | 93% | 1013.6 hPa | 14.99 mm | - | 0 W/m² | - |
| 1777509222 | 22.22° C | 87% | 1013.1 hPa | 0 mm | - | 0 W/m² | - |
| 1777508919 | 22.78° C | 86% | 1010.8 hPa | 0 mm | - | 0 W/m² | - |
| 1777508615 | 23.33° C | 84% | 1010 hPa | 0 mm | - | 0 W/m² | - |
* Rain latest hour (hover to see other rain measurements)
** Current wind speed in m/s (hover to see current wind gust speed)